Location: Bailen
(14.1842°N, 120.7958°E)
Time: 18:57:14
(UTC+00:00)

In-Cosmos 22 - Pass Details

Date: 12 January 2026
Orbit: 784 x 874 km, 81.2° (Epoch: 17 February)

Event Time Altitude Azimuth Distance (km) Brightness Sun altitude
Exits shadow 20:33:39 68° 246° (WSW) 917 4.1 -26.2°
Drops below altitude 10° 20:38:55 10° 183° (S) 2,454 6.8 -24.9°
Sets 20:41:19 0° 181° (S) 3,374 7.5 -24.4°
